1st Responders/1st Detectors/Storm Spotters Weather Summary for Edmonson County, KY

Forecast Maps


Reg. NEXRAD Animation


National Fire Danger: Day 1 & 2 Map

Current NWS Watch/Warnings

SPC Convective Day 1 Outlook


Day 2 Outlook

(Click images to enlarge|Page will refresh every 5 minutes)
UK Ag. Weather Center Desktop Severe Weather Service[HERE]
Edmonson County, KY Hazardous Weather Outlook Webcast
(9 AM to 9 PM Mon-Fri)
[Fast]
[Dial-up]


UKAWC 1st Detectors/1st Responders Precision Weather Forecast For EDMONSON County, Kentucky
(based on the NWS County Digital Forecast)

ISSUED AT 18:00 UTC ON TUESDAY NOV 21 2017
DAY TUESDAY
CDT 3HR 2P 3P 4P 5P 6P
MAX/MIN -- -- -- -- 58°
TEMP 58° 58° 58° 56° 52°
SKY COVER 23% 26% 29% 33% 38%
Clouds
DEW PT 36° 36° 36° 36° 36°
RH 45% 43% 44% 48% 53%
POP 12HR -- -- -- -- --
RAIN/SNOW (liq.equ) -- -- -- -- --
SNOWFALL -- -- -- -- --
WIND SPEED(MPH) 10 9 8 7 6
WIND Gust(MPH) 21 17 15 10 9
WIND DIR SW SW SW SW SW
DEW -- -- -- -- --
HeatIndex 58 58 58 56 52
WIND CHILL -- -- -- -- --
SPRAY COND
DRY COND
LIVESTOCK COLDSTRESS



DAY WEDNESDAY THURSDAY FRIDAY SATURDAY SUNDAY MONDAY
CDT 6HR 7P 8P 9P 10P 11P MIDN 1A 2A 3A 4A 5A 6A 7A 8A 9A 10A 11A NOON 1P 2P 3P 4P 5P 6P 7P 8P 9P 10P 11P MIDN 1A 4A 7A 10A 1P 4P 7P 1A 7A 1P 7P 1A 7A 1P 7P 1A 7A 1P 7P 1A 7A 1P 7P
MAX/MIN -- -- -- -- -- -- -- -- -- -- -- -- 31° -- -- -- -- -- -- -- -- -- -- 45° -- -- -- -- -- -- -- -- 27° -- -- 49° -- -- 29° 56° -- -- 40° 58° -- -- 31° 43° -- -- 25° 45° --
TEMP 49° 47° 45° 43° 43° 43° 41° 40° 38° 34° 32° 31° 31° 32° 34° 36° 38° 40° 43° 43° 45° 45° 41° 38° 36° 34° 32° 31° 29° 29° 27° 27° 27° 38° 47° 47° 40° 32° 31° 54° 45° 43° 41° 58° 47° 36° 31° 43° 36° 29° 27° 43° 36°
SKY COVER 42% 41% 40% 40% 38% 37% 36% 30% 24% 18% 17% 17% 16% 16% 16% 16% 15% 11% 9% 8% 6% 5% 4% 3% 2% 3% 5% 6% 8% 13% 15% 23% 36% 20% 17% 13% 19% 4% 3% 2% 11% 43% 50% 19% 15% 11% 11% 16% 12% 9% 9% 19% 13%
Clouds
DEW PT 36° 36° 36° 36° 34° 34° 34° 32° 31° 29° 29° 27° 25° 25° 25° 25° 25° 25° 25° 25° 25° 25° 25° 25° 25° 25° 25° 25° 25° 25° 25° 25° 25° 27° 27° 27° 29° 27° 27° 31° 34° 34° 36° 38° 34° 31° 27° 27° 25° 22° 22° 25° 27°
RH 62% 64% 71% 73% 72% 73% 72% 75% 76% 82% 84% 81% 78% 75% 69% 64% 58% 55% 51% 48% 47% 47% 52% 59% 66% 71% 74% 81% 84% 87% 92% 88% 91% 64% 43% 45% 64% 78% 85% 41% 62% 67% 82% 49% 60% 81% 84% 51% 66% 77% 84% 49% 69%
POP 12HR 1% -- -- -- -- -- -- -- -- -- -- -- 0% -- -- -- -- -- -- -- -- -- -- -- 2% -- -- -- -- -- -- -- 1% -- -- -- 0% -- 1% -- 1% -- 4% -- 3% -- 1% -- 1% -- 1% -- 1%
RAIN/SNOW (liq.equ) 0.00in -- -- -- -- -- 0.00in -- -- -- -- -- 0.00in -- -- -- -- -- 0.00in -- -- -- -- -- 0.00in -- -- -- -- -- 0.00in -- 0.00in -- 0.00in -- 0.00in -- -- -- -- -- -- -- -- -- -- -- -- -- -- -- --
SNOWFALL 0in -- -- -- -- -- 0in -- -- -- -- -- 0in -- -- -- -- -- 0in -- -- -- -- -- 0in -- -- -- -- -- 0in -- 0in -- 0in -- 0in -- -- -- -- -- -- -- -- -- -- -- -- -- -- -- --
WIND SPEED(MPH) 5 2 2 2 5 7 7 7 7 6 6 6 5 7 7 7 7 7 7 7 7 7 5 5 2 1 1 1 1 2 2 1 0 1 2 5 1 1 1 7 6 7 7 9 7 6 5 7 6 2 2 6 5
WIND DIR SW W W W NW NW N N N N N N N N N N N N NE N N N N N N N N N N NE NE NE NE NE W W W SW S SW S SW SW W NW NW NW NW NW N N SW S
HeatIndex 49 47 43 42 40 38 37 35 32 29 27 26 27 26 28 30 33 36 38 40 41 41 39 35 33 34 32 31 29 25 24 27 27 38 47 47 40 32 31 54 45 39 37 58 47 32 27 39 31 25 23 40 32
WIND CHILL -- -- -- -- 40° 39° 36° 35° 33° 29° 27° 25° 26° 26° 28° 30° 33° 35° 39° 39° 41° 41° 38° 35° -- -- -- -- -- -- -- -- -- -- -- -- -- -- -- -- 42° 39° 36° -- -- 31° 26° 39° 31° -- -- 39° 32°
SPRAY COND
DRY COND
LIVESTOCK COLDSTRESS

Click on individual weather variable above in left-hand column (ie., TEMP, RH, QPF 12HR) to view state forecast maps






NWS 48 Hr. Forecast Maps,

Regional Hourly Observations For EDMONSON County, Kentucky
Issued at 200 PM EST TUE NOV 21 2017
WESTERN AND SOUTH CENTRAL KENTUCKY
  
CITY           SKY/WX    TMP DP  RH WIND       PRES   REMARKS
PADUCAH        SUNNY     58  33  39 SW8       29.97F                  
HENDERSON      SUNNY     58  37  45 SW14      29.96F                  
OWENSBORO      SUNNY     57  35  43 SW16      29.96F                  
HOPKINSVILLE   MOSUNNY   57  31  37 SW8       30.00F                  
BOWLING GREEN  SUNNY     57  30  35 SW13      30.02S                  
GLASGOW        NOT AVBL                                               


Current NOWCAST not available:
Nowcasts are not issued routinely during fair weather. Only when
precipitation or other significant weather is occuring in this county will these
forecasts be issued. Currently, there is no short term forecast in effect.


Fire Weather Forecast For EDMONSON County, KY
Provided by the National Weather Service:

Issued at: Tue Nov 21 13:05:01 EST 2017

318 AM EST Tue Nov 21 2017 /218 AM CST Tue Nov 21 2017/

                      Today        Tonight      Wed          

CLOUD COVER           PCldy        MClear       MClear       
PRECIP TYPE           NONE         NONE         NONE         
CHANCE PRECIP (%)     0            0            0            
TEMP (24H TREND)      58 (+7)      29 (-6)      45           
RH % (24H TREND)      43 (+10)     84 (0)       45           
20FTWND-VAL/AM(MPH)   S  8                      N  6         
20FTWND-RDG/PM(MPH)   SW  7 G17    Lgt/Var      Lgt/Var      
PRECIP AMOUNT         0.00         0.00         0.00         
MIXING HGT(FT-AGL/MSL)2833                      3269         
TRANSPORT WND (MPH)   SW 13                     N  8         
VENT RATE (KT-FT)     41145                     23986        
DISPERSION            Fair                      Poor         
DSI                   STBL         SLGT UNSTBL  STBL         
LAL                   1            1            1            
HAINES INDEX          3            3            4            
ADI EARLY             37 FAIR      9 POOR       32 FAIR      
ADI LATE              50 GEN GOOD  28 FAIR      25 FAIR      
MAX LVORI EARLY       4            3            3            
MAX LVORI LATE        3            4            3            

REMARKS...ADI IS ATMOSPHERIC DISPERSION INDEX BY LAVDAS.        
LVORI IS LOW VISIBILITY OCCURRENCE RISK INDEX.

.THURSDAY...Mostly clear. Lows in the upper 20s. Highs in the
upper 40s. Light winds. 
.FRIDAY...Clear. Lows around 30. Highs in the mid 50s. Light
winds. 
.SATURDAY...Partly cloudy. Lows in the lower 40s. Highs in the
upper 50s. West winds 5 to 10 mph. 
.SUNDAY...Mostly clear. Colder. Lows in the lower 30s. Highs in
the mid 40s. Northwest winds 5 to 10 mph. 
.MONDAY...Mostly clear. Lows in the mid 20s. Highs in the mid
40s. Southwest winds up to 5 mph. 

SPC's Fire Weather Web Tool (Excellent!), SPC's Fire Weather Outlooks, NWS Fire Weather WEB, Fire Danger Class Map,
Keetch-Byram Drought Index, ROMAN Web, Haines Index ,
WFAS's 10-hr Dead Fuel Moist., WFAS's 100-hr Dead Fuel Moist., Probablity of Ignition, Visual blackness Map, Palmer Drought Index, HPC's Rainfall Forecast Maps


Hazardous Weather Outlook For EDMONSON County, Kentucky
147 PM EST Tue Nov 21 2017 /1247 PM CST Tue Nov 21 2017/

 DAY ONE  This Afternoon and Tonight.

No hazardous weather is expected at this time. 

 DAYS TWO THROUGH SEVEN  Wednesday through Monday.

No hazardous weather is expected at this time. 

 SPOTTER INFORMATION STATEMENT  

Spotter activation is not expected.

Latest EDMONSON County, Kentucky Watches, Warnings and Advisories.
Additional Drought Info.: UKAWC Drought Page, Kentucky Drought Watch


7-Day Forecast For EDMONSON County, KY

LATE THIS AFTERNOON
Mostly sunny early in the afternoon then becoming partly cloudy. Southwest winds 5 to 10 mph.

TONIGHT
Partly cloudy. Lows in the lower 30s. West winds 5 to 10 mph shifting to the north after midnight.

WEDNESDAY
Mostly sunny. Highs in the mid 40s. North winds 5 to 10 mph.

WEDNESDAY NIGHT
Mostly clear. Lows in the upper 20s. North winds up to 5 mph.

THANKSGIVING DAY
Mostly sunny. Highs around 50. Southwest winds up to 5 mph.

THURSDAY NIGHT
Clear. Lows in the lower 30s. Southwest winds up to 5 mph.

FRIDAY
Sunny. Highs in the mid 50s.

FRIDAY NIGHT
Partly cloudy. Lows in the lower 40s.

SATURDAY
Mostly sunny. Highs in the upper 50s.

SATURDAY NIGHT
Mostly clear. Lows in the lower 30s.

SUNDAY
Mostly sunny. Highs in the mid 40s.

SUNDAY NIGHT
Mostly clear. Lows in the upper 20s.

MONDAY
Mostly sunny. Highs in the upper 40s.

MONDAY NIGHT
Mostly clear. Lows in the mid 30s.

TUESDAY
Mostly sunny. Highs in the upper 50s.

Ag Weather Center, Department of Biosystems & Agricultural Engineering, University of Kentucky